TimeEDT,TemperatureF,Dew PointF,Humidity,Sea Level PressureIn,VisibilityMPH,Wind Direction,Wind SpeedMPH,Gust SpeedMPH,PrecipitationIn,Events,Conditions,WindDirDegrees,DateUTC
12:53 AM,66.0,64.0,93,30.10,10.0,Calm,Calm,-,N/A,,Clear,0,2013-08-21 04:53:00
1:53 AM,66.9,64.9,93,30.12,10.0,Calm,Calm,-,N/A,,Clear,0,2013-08-21 05:53:00
2:53 AM,66.9,64.9,93,30.12,10.0,Calm,Calm,-,N/A,,Clear,0,2013-08-21 06:53:00
3:51 AM,64.4,62.6,94,30.13,1.8,Calm,Calm,-,N/A,,Clear,0,2013-08-21 07:51:00
3:53 AM,64.0,63.0,96,30.11,1.2,Calm,Calm,-,N/A,,Clear,0,2013-08-21 07:53:00
4:03 AM,64.4,62.6,94,30.13,4.0,Calm,Calm,-,N/A,,Clear,0,2013-08-21 08:03:00
4:43 AM,64.4,62.6,94,30.13,1.8,Calm,Calm,-,N/A,,Clear,0,2013-08-21 08:43:00
4:53 AM,64.0,63.0,96,30.11,1.5,Calm,Calm,-,N/A,,Clear,0,2013-08-21 08:53:00
4:57 AM,64.4,62.6,94,30.13,3.0,Calm,Calm,-,N/A,,Clear,0,2013-08-21 08:57:00
5:12 AM,62.6,62.6,100,30.13,1.8,Calm,Calm,-,N/A,,Clear,0,2013-08-21 09:12:00
5:21 AM,62.6,60.8,94,30.13,0.8,Calm,Calm,-,N/A,,Clear,0,2013-08-21 09:21:00
5:26 AM,62.6,62.6,100,30.13,2.5,Calm,Calm,-,N/A,,Clear,0,2013-08-21 09:26:00
5:33 AM,62.6,62.6,100,30.13,7.0,Calm,Calm,-,N/A,,Clear,0,2013-08-21 09:33:00
5:46 AM,62.6,62.6,100,30.13,1.5,Calm,Calm,-,N/A,,Clear,0,2013-08-21 09:46:00
5:53 AM,62.1,62.1,100,30.12,0.5,Calm,Calm,-,N/A,Fog,Fog,0,2013-08-21 09:53:00
6:08 AM,62.6,62.6,100,30.13,2.5,Calm,Calm,-,N/A,,Clear,0,2013-08-21 10:08:00
6:15 AM,62.6,60.8,94,30.14,5.0,Calm,Calm,-,N/A,,Clear,0,2013-08-21 10:15:00
6:22 AM,62.6,62.6,100,30.14,1.8,Calm,Calm,-,N/A,,Clear,0,2013-08-21 10:22:00
6:34 AM,62.6,60.8,94,30.14,0.5,Calm,Calm,-,N/A,Fog,Fog,0,2013-08-21 10:34:00
6:44 AM,60.8,60.8,100,30.14,0.2,Calm,Calm,-,N/A,Fog,Fog,0,2013-08-21 10:44:00
6:53 AM,62.1,61.0,96,30.13,0.2,Calm,Calm,-,N/A,Fog,Fog,0,2013-08-21 10:53:00
6:56 AM,60.8,60.8,100,30.14,0.5,Calm,Calm,-,N/A,Fog,Fog,0,2013-08-21 10:56:00
7:04 AM,60.8,60.8,100,30.15,0.2,Calm,Calm,-,N/A,Fog,Fog,0,2013-08-21 11:04:00
7:50 AM,62.6,62.6,100,30.16,1.0,Calm,Calm,-,0.01,,Overcast,0,2013-08-21 11:50:00
7:53 AM,64.0,63.0,96,30.15,4.0,Calm,Calm,-,0.01,,Overcast,0,2013-08-21 11:53:00
8:41 AM,68.0,66.2,94,30.18,4.0,Calm,Calm,-,N/A,,Scattered Clouds,0,2013-08-21 12:41:00
8:53 AM,69.1,68.0,96,30.17,6.0,Calm,Calm,-,N/A,,Partly Cloudy,0,2013-08-21 12:53:00
9:53 AM,73.9,69.1,85,30.17,10.0,SE,3.5,-,N/A,,Clear,140,2013-08-21 13:53:00
10:53 AM,77.0,70.0,79,30.17,10.0,SE,3.5,-,N/A,,Clear,130,2013-08-21 14:53:00
11:53 AM,81.0,70.0,69,30.17,10.0,Calm,Calm,-,N/A,,Clear,0,2013-08-21 15:53:00
12:53 PM,81.0,69.1,67,30.15,10.0,Calm,Calm,-,N/A,,Mostly Cloudy,0,2013-08-21 16:53:00
1:53 PM,84.0,64.9,53,30.13,10.0,Variable,4.6,-,N/A,,Partly Cloudy,0,2013-08-21 17:53:00
2:53 PM,86.0,66.0,51,30.11,10.0,SSE,6.9,-,N/A,,Scattered Clouds,150,2013-08-21 18:53:00
3:53 PM,86.0,68.0,55,30.10,10.0,Calm,Calm,-,N/A,,Mostly Cloudy,0,2013-08-21 19:53:00
4:53 PM,87.1,64.9,48,30.09,10.0,Variable,4.6,-,N/A,,Mostly Cloudy,0,2013-08-21 20:53:00
5:53 PM,84.9,66.0,53,30.08,10.0,West,5.8,-,N/A,,Scattered Clouds,260,2013-08-21 21:53:00
6:53 PM,82.9,66.9,58,30.08,10.0,West,3.5,-,N/A,,Clear,260,2013-08-21 22:53:00
7:53 PM,80.1,71.1,74,30.08,10.0,Calm,Calm,-,N/A,,Partly Cloudy,0,2013-08-21 23:53:00
8:53 PM,73.9,70.0,87,30.08,10.0,Calm,Calm,-,N/A,,Partly Cloudy,0,2013-08-22 00:53:00
9:53 PM,71.1,69.1,93,30.09,10.0,Calm,Calm,-,N/A,,Clear,0,2013-08-22 01:53:00
10:53 PM,68.0,66.0,93,30.11,6.0,Calm,Calm,-,N/A,,Clear,0,2013-08-22 02:53:00
11:53 PM,66.9,66.0,97,30.12,5.0,Calm,Calm,-,N/A,,Clear,0,2013-08-22 03:53:00